Location: Ab? ar R?sh Ba?r?
(24.1861°N, 32.8847°E)
Time: 13:18:43
(UTC+00:00)

Milstar 3 Cent rocket - Pass Details

Date: 02 June 2022
Orbit: 706 x 5146 km, 28.3° (Epoch: 28 June)

Event Time Altitude Azimuth Distance (km) Brightness Sun altitude
Rises 18:00:23 0° 289° (WNW) 8,892 8.8 -18.1°
Reaches altitude 10° 18:07:54 10° 284° (WNW) 7,266 8.0 -19.5°
Maximum altitude 18:27:35 46° 219° (SW) 2,963 4.9 -23.0°
Enters shadow 18:33:25 28° 165° (SSE) 2,976 4.5 -24.0°
